TimeEDT,TemperatureF,Dew PointF,Humidity,Sea Level PressureIn,VisibilityMPH,Wind Direction,Wind SpeedMPH,Gust SpeedMPH,PrecipitationIn,Events,Conditions,WindDirDegrees,DateUTC
12:56 AM,48.9,48.0,97,30.22,3.0,Calm,Calm,-,N/A,,Clear,0,2013-08-24 04:56:00
1:56 AM,48.0,46.9,96,30.23,3.0,Calm,Calm,-,N/A,,Clear,0,2013-08-24 05:56:00
2:56 AM,46.9,45.0,93,30.25,10.0,East,3.5,-,N/A,,Clear,90,2013-08-24 06:56:00
3:56 AM,46.9,45.0,93,30.26,10.0,Calm,Calm,-,N/A,,Clear,0,2013-08-24 07:56:00
4:56 AM,46.0,44.1,93,30.27,10.0,Calm,Calm,-,N/A,,Clear,0,2013-08-24 08:56:00
5:56 AM,46.9,45.0,93,30.29,10.0,East,4.6,-,N/A,,Clear,90,2013-08-24 09:56:00
6:56 AM,45.0,44.1,97,30.31,10.0,East,3.5,-,N/A,,Clear,90,2013-08-24 10:56:00
7:56 AM,55.0,52.0,89,30.33,10.0,Calm,Calm,-,N/A,,Clear,0,2013-08-24 11:56:00
8:56 AM,64.0,57.0,78,30.33,10.0,Calm,Calm,-,N/A,,Clear,0,2013-08-24 12:56:00
9:56 AM,70.0,48.0,46,30.34,10.0,Calm,Calm,-,N/A,,Clear,0,2013-08-24 13:56:00
10:56 AM,71.1,48.9,45,30.35,10.0,Calm,Calm,-,N/A,,Clear,0,2013-08-24 14:56:00
11:56 AM,73.0,48.0,41,30.35,10.0,WSW,8.1,-,N/A,,Clear,240,2013-08-24 15:56:00
12:56 PM,75.0,51.1,43,30.34,10.0,Variable,5.8,-,N/A,,Clear,0,2013-08-24 16:56:00
1:56 PM,75.0,50.0,41,30.33,10.0,West,8.1,-,N/A,,Clear,270,2013-08-24 17:56:00
2:56 PM,75.0,48.9,40,30.32,10.0,West,6.9,-,N/A,,Clear,270,2013-08-24 18:56:00
3:56 PM,75.0,50.0,41,30.30,10.0,Variable,5.8,-,N/A,,Clear,0,2013-08-24 19:56:00
4:56 PM,75.0,50.0,41,30.30,10.0,West,5.8,-,N/A,,Clear,270,2013-08-24 20:56:00
5:56 PM,75.0,50.0,41,30.30,10.0,WSW,6.9,-,N/A,,Clear,250,2013-08-24 21:56:00
6:56 PM,71.1,51.1,49,30.31,10.0,WSW,4.6,-,N/A,,Clear,250,2013-08-24 22:56:00
7:56 PM,62.1,53.1,72,30.32,10.0,West,3.5,-,N/A,,Clear,260,2013-08-24 23:56:00
8:56 PM,55.0,52.0,89,30.34,10.0,SSE,3.5,-,N/A,,Clear,150,2013-08-25 00:56:00
9:56 PM,55.0,51.1,86,30.34,10.0,Calm,Calm,-,N/A,,Clear,0,2013-08-25 01:56:00
10:56 PM,52.0,50.0,93,30.33,10.0,Calm,Calm,-,N/A,,Clear,0,2013-08-25 02:56:00
11:56 PM,51.1,48.9,92,30.33,10.0,Calm,Calm,-,N/A,,Clear,0,2013-08-25 03:56:00